Regional Weather Roundup
Issued by NWS

Home | Current Version | Previous Version | Graphics & Text | Print | Product List | Glossary On
Versions: 1 2 3 4 5 6 7 8 9 10 11 12 13 14 15 16 17 18 19 20 21 22 23 24 25 26 27 28 29 30 31 32 33 34 35 36 37 38 39 40 41 42 43 44 45 46 47 48 49 50
067
ASUS45 KBOU 161810
RWRCO

WEATHER ROUNDUP FOR COLORADO
NATIONAL WEATHER SERVICE DENVER/BOULDER CO
1100 AM MST SAT DEC 16 2017

NOTE: "FAIR" INDICATES FEW OR NO CLOUDS BELOW 12000 FEET WITH NO
SIGNIFICANT WEATHER AND/OR OBSTRUCTIONS TO VISIBILITY.

COZ001>005-013-030-031-161900-
...NORTHWEST COLORADO...

CITY           SKY/WX    TMP DP  RH WIND       PRES   REMARKS
CRAIG          FAIR      25  12  58 W3        29.83F
HAYDEN         FAIR      27  13  55 CALM      29.83F
MEEKER         FAIR      33  10  38 CALM      29.81F
RABBIT EARS PA MOCLDY    28  -4  24 S6        29.86F WCI  22
STEAMBOAT SPGS FAIR      23  11  61 CALM      29.81F
WALDEN         FAIR      30  10  43 W8        29.84F WCI  23
$$

COZ006>008-011-161900-
...WEST CENTRAL VALLEYS...

CITY           SKY/WX    TMP DP  RH WIND       PRES   REMARKS
GRAND JUNCTION FAIR      33   9  36 CALM      29.85F
MONTROSE       FAIR      32  10  40 NW3       29.85F
EAGLE          FAIR      17   9  70 CALM      29.91F
RIFLE          FAIR      28  10  46 SW6       29.86F WCI  22
DELTA          FAIR      35   5  28 CALM      29.84F
NUCLA          FAIR      32  -4  21 CALM      29.89S
$$

COZ017>023-064>068-161900-
...SOUTHWEST COLORADO...

CITY           SKY/WX    TMP DP  RH WIND       PRES   REMARKS
DURANGO        FAIR      34  16  47 CALM      29.86F
CORTEZ         FAIR      36  11  35 CALM      29.85F
PAGOSA SPRINGS FAIR      40   9  27 CALM      29.86F
TELLURIDE      FAIR      36   4  26 W8        29.86F
WOLF CREEK PAS FAIR      34   3  27 SW5       29.99F WCI  30
$$

COZ009-010-012-014-032>034-037-058>063-161900-
...CENTRAL COLORADO...

CITY           SKY/WX    TMP DP  RH WIND       PRES   REMARKS
ASPEN          FAIR      30  15  53 SE3       29.80F
BUENA VISTA    FAIR      31  19  61 CALM      29.86F
COPPER MTN     NOT AVBL
BERTHOUD PASS  CLOUDY    21   9  58 SE26G37   29.94F WCI   4
COTTONWOOD PAS FAIR      37   1  22 CALM      29.88F
GUNNISON       FAIR      16   5  62 CALM      29.91F
KREMMLING      FAIR      19  12  73 CALM      29.90F
LEADVILLE      PTSUNNY   29   3  33 CALM      29.85F
MONARCH PASS   FAIR      32   3  29 SW8       30.04F WCI  25
SALIDA         FAIR      36  11  35 W3        29.92F
SUNLIGHT       FAIR      32  -9  16 SW8       29.90F WCI  25
WILKERSON PASS FAIR      32  -2  23 NE8       29.96F WCI  25
$$

COZ069>075-161900-
...SAN LUIS VALLEY/SANGRE DE CRISTO MOUNTAINS...

CITY           SKY/WX    TMP DP  RH WIND       PRES   REMARKS
ALAMOSA        FAIR      29  12  49 CALM      29.87F
DEL NORTE      FAIR      28  12  51 E6        29.89F WCI  21
LA VETA PASS   FAIR      39   7  26 CALM        N/A
SAGUACHE       FAIR      34   7  32 CALM      29.88F
$$

COZ035-036-038>040-161900-
...NORTHERN COLORADO FRONT RANGE...

CITY           SKY/WX    TMP DP  RH WIND       PRES   REMARKS
DENVER INTL AP PTSUNNY   48   8  19 NE14      29.85R
DMNS CITY PARK NOT AVBL
AURORA         PTSUNNY   47   8  20 NE9       29.85R
FRONT RANGE AP PTSUNNY   46  10  23 NE12      29.86R
ERIE MUNI ARPT FAIR      47  10  22 N10       29.91F
BOULDER MUN AP FAIR      45  12  26 N7        29.86S
CENTENNIAL     PTSUNNY   47  10  22 NE7       29.85R
BROOMFIELD     MOSUNNY   46  14  27 N7        29.87
FORT COLLINS   FAIR      46  15  28 NE9       29.87S
LONGMONT       FAIR      50  11  21 N9        29.88F
$$

COZ041-046-047-076>085-087-088-161900-
...PIKES PEAK/PALMER DIVIDE AND SOUTHERN FOOTHILLS...

CITY           SKY/WX    TMP DP  RH WIND       PRES   REMARKS
COLO. SPRINGS  PTSUNNY   52   8  17 NE20      29.81R
A. F. ACADEMY  FAIR      50   7  17 NE17      29.81S
SCHRIEVER AFB  FAIR      47   4  16 NE23      29.80S
CHEYENNE MTN   FAIR      49   7  18 N17       29.75F
ELLICOTT         N/A    N/A N/A N/A NE21G32   29.77S
FALCON         FAIR      47  -1  13 NE16G24   29.83F
FORT CARSON    FAIR      55   8  15 NE23G29   29.77S
LIMON          FAIR      48   5  17 NE21      29.81R
MONUMENT HILL  FAIR      41   5  22 NE10      29.86F
CANON CITY     FAIR      59  12  15 W9        29.74F
WALSENBURG     FAIR      57  10  15 N22       29.75F
TRINIDAD       FAIR      57  11  16 W5        29.72F
$$

COZ042>045-048>051-090-091-161900-
...NORTHEAST COLORADO...

CITY           SKY/WX    TMP DP  RH WIND       PRES   REMARKS
GREELEY ARPT   FAIR      49  14  24 N16       29.86S
AKRON          FAIR      46  14  27 E17G28    29.81S
BURLINGTON     FAIR      53  14  21 NE17      29.76F
WRAY           FAIR      46  18  31 NE17      29.81S
YUMA           FAIR      43  16  33 NE15      29.82S
STERLING       FAIR      45  19  36 NE10G18   29.82S
HOLYOKE        FAIR      52  23  32 NE20G25   29.83F
FORT MORGAN    FAIR      49  13  23 NE18      29.84R
$$

COZ086-089-092>099-161900-
...SOUTHEAST COLORADO...

CITY           SKY/WX    TMP DP  RH WIND       PRES   REMARKS
PUEBLO         FAIR      57  14  18 MISG      29.74R
LA JUNTA       FAIR      51  16  24 N7        29.71F
LAMAR          FAIR      48  17  29 VRB3      29.70F
SPRINGFIELD      N/A     56  15  20 NE7       29.69F
$$




USA.gov is the U.S. government's official web portal to all federal, state and local government web resources and services.